Overview Statistics Trail Chart Weather Telemetry Raw packets
 

This is the latest recevied weather packets stored in our database for station/object K5KVN. If no packets are shown the sender has not sent any weather packets the latest 10 day(s).

<< 42 43 44 45 46 47 48 >>
Time Temp. Humidity Pressure Rain* Wind** Luminosity Snow
1788043859 35.56° C 35% 1016.5 hPa 0 mm - - -
1788043259 35.56° C 33% 1016.5 hPa 0 mm - - -
1788042661 35.56° C 34% 1016.5 hPa 0 mm - - -
1788042060 35.56° C 33% 1016.6 hPa 0 mm - - -
1788041459 35.56° C 34% 1016.6 hPa 0 mm - - -
1788040918 36.11° C 33% 1016.6 hPa 0 mm - - -
1788040256 36.67° C 33% 1016.6 hPa 0 mm - - -
1788039657 36.67° C 34% 1016.7 hPa 0 mm - - -
1788039056 36.11° C 32% 1016.8 hPa 0 mm - - -
1788038455 36.67° C 35% 1016.8 hPa 0 mm - - -
1788037867 36.11° C 35% 1016.9 hPa 0 mm - - -
1788037316 36.67° C 35% 1017.1 hPa 0 mm - - -
1788036652 36.67° C 34% 1017.3 hPa 0 mm - - -
1788036052 36.11° C 32% 1017.4 hPa 0 mm - - -
1788035450 36.67° C 34% 1017.7 hPa 0 mm - - -
1788034849 36.11° C 36% 1017.8 hPa 0 mm - - -
1788034250 35.56° C 36% 1017.9 hPa 0 mm - - -
1788033648 36.11° C 37% 1018.1 hPa 0 mm - - -
1788033045 36.67° C 36% 1018.2 hPa 0 mm - - -
1788032444 36.11° C 38% 1018.4 hPa 0 mm - - -
1788031841 36.11° C 37% 1018.5 hPa 0 mm - - -
1788031238 35.56° C 39% 1018.6 hPa 0 mm - - -
1788030698 35.56° C 41% 1018.8 hPa 0 mm - - -
1788030038 35° C 39% 1019 hPa 0 mm - - -
1788029436 35.56° C 39% 1019.1 hPa 0 mm - - -

* Rain latest hour (hover to see other rain measurements)
** Current wind speed in m/s (hover to see current wind gust speed)